Tracking 31027 objects as of 19-Jul-2025
HD Live streaming from Space Station
objects crossing your sky now

STARLINK-1265

Track STARLINK-1265 now!
10-day predictions
STARLINK-1265 is classified as:


NORAD ID: 45406
Int'l Code: 2020-019AY
Perigee: 553.4 km
Apogee: 555.3 km
Inclination: 53.1 °
Period: 95.6 minutes
Semi major axis: 6925 km
RCS: Unknown
Launch date: March 18, 2020
Source: United States (US)
Launch site: AIR FORCE EASTERN TEST RANGE (AFETR)
Your satellite tracking list
TITAN 3C TRANSTAGE DEB
Track 1 satellite(s)




NASA's NSSDC Master Catalog

Two Line Element Set (TLE):
1 45406U 20019AY  25199.43862802 -.00001025  00000-0 -49937-4 0  9996
2 45406  53.0565 108.2120 0001365  93.7269 266.3877 15.06402459294550
Source of the keplerian elements: AFSPC